KOW992 KDAL-KMRY

Flight info

Callsign KOW992
Flight time 2h 10m
Altitude 43000
Route KKITY5 BRHMA CNX BLD BIKKR PXN SNS
Aircraft C750/M-SBDE3FGHRWXY/S

Departure

Time 2026-04-21 18:41
Airport Dallas Love Field (KDAL)

Arrival

Time 2026-04-21 20:51
Airport Monterey Regional Airport (KMRY)
Time Latitude Longitude Altitude Speed Heading
2026-04-21 18:21 32.85018 -96.84409 480 ft 0 kts 140°
2026-04-21 18:34 32.85005 -96.84402 476 ft 3 kts 171°
2026-04-21 18:34 32.84987 -96.84426 478 ft 5 kts 245°
2026-04-21 18:35 32.84974 -96.84459 477 ft 8 kts 242°
2026-04-21 18:35 32.84922 -96.84533 476 ft 9 kts 220°
2026-04-21 18:35 32.84872 -96.84508 481 ft 7 kts 135°
2026-04-21 18:35 32.84846 -96.84496 478 ft 3 kts 184°
2026-04-21 18:36 32.84834 -96.84502 481 ft 2 kts 207°
2026-04-21 18:36 32.84821 -96.84515 482 ft 3 kts 224°
2026-04-21 18:36 32.84800 -96.84540 477 ft 5 kts 224°
2026-04-21 18:36 32.84757 -96.84589 483 ft 13 kts 224°
2026-04-21 18:37 32.84703 -96.84673 479 ft 11 kts 282°
2026-04-21 18:37 32.84774 -96.84758 481 ft 19 kts 315°
2026-04-21 18:37 32.84888 -96.84888 481 ft 27 kts 315°
2026-04-21 18:37 32.85039 -96.85066 481 ft 31 kts 315°
2026-04-21 18:38 32.85180 -96.85228 480 ft 26 kts 315°
2026-04-21 18:38 32.85297 -96.85363 481 ft 21 kts 318°
2026-04-21 18:38 32.85407 -96.85490 481 ft 23 kts 315°
2026-04-21 18:38 32.85529 -96.85632 481 ft 26 kts 315°
2026-04-21 18:39 32.85629 -96.85744 481 ft 8 kts 325°
2026-04-21 18:39 32.85657 -96.85748 481 ft 0 kts 38°
2026-04-21 18:39 32.85658 -96.85747 481 ft 0 kts 38°
2026-04-21 18:40 32.85663 -96.85741 481 ft 2 kts 47°
2026-04-21 18:40 32.85678 -96.85721 481 ft 5 kts 46°
2026-04-21 18:40 32.85698 -96.85696 482 ft 8 kts 46°
2026-04-21 18:40 32.85679 -96.85620 483 ft 12 kts 135°
2026-04-21 18:41 32.85491 -96.85388 484 ft 82 kts 136°
2026-04-21 18:41 32.84909 -96.84730 568 ft 133 kts 136°
2026-04-21 18:41 32.84224 -96.83941 1147 ft 137 kts 137°
2026-04-21 18:41 32.83526 -96.83172 1813 ft 146 kts 141°
2026-04-21 18:42 32.82694 -96.82304 2175 ft 173 kts 141°
2026-04-21 18:42 32.81728 -96.81270 2531 ft 196 kts 140°
2026-04-21 18:42 32.80740 -96.80196 3454 ft 192 kts 142°
2026-04-21 18:42 32.79614 -96.79272 3842 ft 207 kts 165°
2026-04-21 18:43 32.78091 -96.79307 4064 ft 237 kts 194°
2026-04-21 18:43 32.76657 -96.80306 4882 ft 242 kts 225°
2026-04-21 18:43 32.75811 -96.82071 5635 ft 255 kts 256°
2026-04-21 18:43 32.75767 -96.84181 6556 ft 258 kts 271°
2026-04-21 18:44 32.75852 -96.86318 7305 ft 267 kts 271°
2026-04-21 18:44 32.75917 -96.88542 8249 ft 267 kts 270°
2026-04-21 18:44 32.75969 -96.90764 9251 ft 271 kts 270°
2026-04-21 18:44 32.76026 -96.93046 10074 ft 278 kts 271°
2026-04-21 18:45 32.76087 -96.95388 10463 ft 298 kts 271°
2026-04-21 18:45 32.76152 -96.97968 10543 ft 326 kts 271°
2026-04-21 18:45 32.76223 -97.00750 10795 ft 342 kts 271°
2026-04-21 18:45 32.76294 -97.03558 11618 ft 339 kts 271°
2026-04-21 18:46 32.76365 -97.06401 12181 ft 346 kts 271°
2026-04-21 18:46 32.76434 -97.09272 12819 ft 348 kts 271°
2026-04-21 18:46 32.76504 -97.12172 13371 ft 354 kts 271°
2026-04-21 18:46 32.76574 -97.15078 14010 ft 357 kts 271°
2026-04-21 18:47 32.76644 -97.18036 14616 ft 359 kts 271°
2026-04-21 18:47 32.76714 -97.21018 15208 ft 361 kts 271°
2026-04-21 18:47 32.76783 -97.24007 15856 ft 363 kts 272°
2026-04-21 18:47 32.76853 -97.27041 16406 ft 369 kts 272°
2026-04-21 18:48 32.76922 -97.30095 17080 ft 371 kts 272°
2026-04-21 18:48 32.76991 -97.33147 17712 ft 374 kts 272°
2026-04-21 18:48 32.77060 -97.36250 18388 ft 377 kts 272°
2026-04-21 18:48 32.77129 -97.39389 19003 ft 380 kts 272°
2026-04-21 18:49 32.77197 -97.42537 19612 ft 383 kts 271°
2026-04-21 18:49 32.77265 -97.45680 20219 ft 386 kts 271°
2026-04-21 18:49 32.77311 -97.47847 20640 ft 388 kts 271°
2026-04-21 18:49 32.77400 -97.52112 21455 ft 392 kts 271°
2026-04-21 18:50 32.77468 -97.55367 22059 ft 395 kts 271°
2026-04-21 18:50 32.77535 -97.58650 22674 ft 398 kts 271°
2026-04-21 18:50 32.77579 -97.60833 23026 ft 401 kts 271°
2026-04-21 18:50 32.77646 -97.64169 23593 ft 405 kts 271°
2026-04-21 18:51 32.77713 -97.67526 24136 ft 408 kts 271°
2026-04-21 18:51 32.77779 -97.70913 24602 ft 411 kts 271°
2026-04-21 18:51 32.78094 -97.74315 25035 ft 415 kts 280°
2026-04-21 18:51 32.78817 -97.77615 25506 ft 418 kts 285°
2026-04-21 18:52 32.79612 -97.80957 25955 ft 421 kts 284°
2026-04-21 18:52 32.80395 -97.84333 26419 ft 424 kts 284°
2026-04-21 18:52 32.81185 -97.87740 26831 ft 427 kts 284°
2026-04-21 18:52 32.81977 -97.91112 27268 ft 431 kts 284°
2026-04-21 18:53 32.82787 -97.94562 27717 ft 434 kts 284°
2026-04-21 18:53 32.83593 -97.98033 28175 ft 436 kts 284°
2026-04-21 18:53 32.84401 -98.01512 28784 ft 435 kts 284°
2026-04-21 18:53 32.85212 -98.04997 29212 ft 439 kts 284°
2026-04-21 18:54 32.86027 -98.08504 29660 ft 441 kts 284°
2026-04-21 18:54 32.86844 -98.12034 30094 ft 444 kts 284°
2026-04-21 18:54 32.87669 -98.15598 30496 ft 447 kts 284°
2026-04-21 18:54 32.88485 -98.19123 30916 ft 448 kts 284°
2026-04-21 18:55 32.89313 -98.22712 31303 ft 450 kts 284°
2026-04-21 18:55 32.90147 -98.26331 31729 ft 451 kts 284°
2026-04-21 18:55 32.90979 -98.29922 32321 ft 447 kts 284°
2026-04-21 18:55 32.91800 -98.33477 32888 ft 444 kts 284°
2026-04-21 18:56 32.92600 -98.36957 33474 ft 439 kts 284°
2026-04-21 18:56 32.93402 -98.40447 34069 ft 435 kts 284°
2026-04-21 18:56 32.94196 -98.43910 34538 ft 432 kts 284°
2026-04-21 18:56 32.94986 -98.47362 34968 ft 431 kts 284°
2026-04-21 18:57 32.95772 -98.50798 35416 ft 429 kts 284°
2026-04-21 18:57 32.96555 -98.54224 35868 ft 427 kts 284°
2026-04-21 18:57 32.97337 -98.57649 36364 ft 426 kts 284°
2026-04-21 18:57 32.98111 -98.61044 36882 ft 424 kts 284°
2026-04-21 18:58 32.98870 -98.64384 37410 ft 422 kts 284°
2026-04-21 18:58 32.99636 -98.67752 37934 ft 420 kts 284°
2026-04-21 18:58 33.00398 -98.71105 38426 ft 419 kts 284°
2026-04-21 18:58 33.01156 -98.74449 38954 ft 416 kts 284°
2026-04-21 18:59 33.01907 -98.77769 39354 ft 415 kts 284°
2026-04-21 18:59 33.02660 -98.81102 39722 ft 415 kts 284°
2026-04-21 18:59 33.03411 -98.84428 40093 ft 415 kts 284°
2026-04-21 18:59 33.04161 -98.87751 40467 ft 416 kts 284°
2026-04-21 19:00 33.04902 -98.91041 40837 ft 416 kts 283°
2026-04-21 19:00 33.05651 -98.94375 41211 ft 416 kts 283°
2026-04-21 19:00 33.06401 -98.97715 41587 ft 416 kts 283°
2026-04-21 19:00 33.07149 -99.01049 41960 ft 417 kts 283°
2026-04-21 19:01 33.07899 -99.04399 42330 ft 417 kts 283°
2026-04-21 19:01 33.08650 -99.07755 42692 ft 418 kts 283°
2026-04-21 19:01 33.09390 -99.11069 43037 ft 418 kts 283°
2026-04-21 19:01 33.10141 -99.14438 43163 ft 424 kts 283°
2026-04-21 19:02 33.10904 -99.17865 43173 ft 432 kts 283°
2026-04-21 19:02 33.12473 -99.24922 43172 ft 447 kts 283°
2026-04-21 19:03 33.14090 -99.32218 43175 ft 462 kts 283°
2026-04-21 19:03 33.15741 -99.39682 43163 ft 466 kts 283°
2026-04-21 19:04 33.17392 -99.47179 43157 ft 467 kts 283°
2026-04-21 19:04 33.19032 -99.54651 43150 ft 468 kts 283°
2026-04-21 19:05 33.20686 -99.62179 43153 ft 468 kts 283°
2026-04-21 19:05 33.22419 -99.69681 43144 ft 468 kts 284°
2026-04-21 19:06 33.24097 -99.77149 43138 ft 468 kts 283°
2026-04-21 19:06 33.25802 -99.84664 43132 ft 468 kts 283°
2026-04-21 19:07 33.27497 -99.92202 43132 ft 470 kts 283°
2026-04-21 19:07 33.29200 -99.99778 43126 ft 472 kts 283°
2026-04-21 19:08 33.30885 -100.07309 43125 ft 472 kts 283°
2026-04-21 19:08 33.32577 -100.14887 43129 ft 472 kts 283°
2026-04-21 19:09 33.34270 -100.22492 43130 ft 472 kts 283°
2026-04-21 19:09 33.35955 -100.30092 43120 ft 472 kts 283°
2026-04-21 19:10 33.37629 -100.37663 43113 ft 472 kts 283°
2026-04-21 19:10 33.39304 -100.45262 43094 ft 472 kts 283°
2026-04-21 19:11 33.40975 -100.52868 43098 ft 472 kts 283°
2026-04-21 19:11 33.42641 -100.60471 43100 ft 473 kts 283°
2026-04-21 19:12 33.44307 -100.68099 43101 ft 473 kts 283°
2026-04-21 19:12 33.45966 -100.75726 43094 ft 473 kts 283°
2026-04-21 19:13 33.47614 -100.83318 43093 ft 473 kts 283°
2026-04-21 19:13 33.49271 -100.90981 43097 ft 474 kts 283°
2026-04-21 19:14 33.50922 -100.98640 43097 ft 474 kts 283°
2026-04-21 19:14 33.52555 -101.06255 43089 ft 474 kts 283°
2026-04-21 19:15 33.54086 -101.13952 43092 ft 474 kts 282°
2026-04-21 19:15 33.55646 -101.21622 43087 ft 473 kts 282°
2026-04-21 19:16 33.57190 -101.29316 43087 ft 474 kts 282°
2026-04-21 19:16 33.58723 -101.36956 43077 ft 474 kts 282°
2026-04-21 19:17 33.61025 -101.48498 43092 ft 474 kts 282°
2026-04-21 19:17 33.62562 -101.56214 43104 ft 474 kts 282°
2026-04-21 19:18 33.64073 -101.63850 43116 ft 473 kts 282°
2026-04-21 19:18 33.65597 -101.71562 43133 ft 474 kts 282°
2026-04-21 19:19 33.67117 -101.79294 43143 ft 476 kts 282°
2026-04-21 19:19 33.68628 -101.87001 43145 ft 476 kts 282°
2026-04-21 19:20 33.70140 -101.94741 43134 ft 476 kts 282°
2026-04-21 19:20 33.71648 -102.02487 43113 ft 476 kts 282°
2026-04-21 19:21 33.73141 -102.10189 43086 ft 476 kts 282°
2026-04-21 19:21 33.74643 -102.17959 43066 ft 476 kts 282°
2026-04-21 19:22 33.76125 -102.25656 43044 ft 476 kts 281°
2026-04-21 19:22 33.77618 -102.33435 43045 ft 476 kts 281°
2026-04-21 19:23 33.79101 -102.41194 43046 ft 476 kts 281°
2026-04-21 19:23 33.80581 -102.48961 43028 ft 476 kts 281°
2026-04-21 19:24 33.82047 -102.56686 43031 ft 476 kts 281°
2026-04-21 19:24 33.83520 -102.64473 43024 ft 478 kts 281°
2026-04-21 19:25 33.84990 -102.72276 43022 ft 477 kts 281°
2026-04-21 19:25 33.86448 -102.80040 43015 ft 478 kts 281°
2026-04-21 19:26 33.87909 -102.87855 43016 ft 478 kts 281°
2026-04-21 19:26 33.89357 -102.95624 43014 ft 478 kts 281°
2026-04-21 19:27 33.90810 -103.03449 43011 ft 478 kts 281°
2026-04-21 19:27 33.92250 -103.11233 43005 ft 478 kts 281°
2026-04-21 19:28 33.93692 -103.19058 43005 ft 478 kts 281°
2026-04-21 19:28 33.95121 -103.26846 43006 ft 478 kts 281°
2026-04-21 19:29 33.96552 -103.34668 43006 ft 478 kts 281°
2026-04-21 19:29 33.97977 -103.42495 43002 ft 478 kts 281°
2026-04-21 19:30 33.99401 -103.50339 42988 ft 480 kts 281°
2026-04-21 19:30 34.00812 -103.58147 42989 ft 479 kts 281°
2026-04-21 19:31 34.02230 -103.66016 42980 ft 479 kts 281°
2026-04-21 19:31 34.03632 -103.73834 42981 ft 479 kts 281°
2026-04-21 19:32 34.05037 -103.81694 42961 ft 479 kts 281°
2026-04-21 19:32 34.06437 -103.89561 42949 ft 479 kts 281°
2026-04-21 19:33 34.07832 -103.97426 42936 ft 479 kts 280°
2026-04-21 19:33 34.09217 -104.05267 42937 ft 482 kts 280°
2026-04-21 19:34 34.10608 -104.13172 42937 ft 481 kts 280°
2026-04-21 19:34 34.11987 -104.21044 42931 ft 481 kts 280°
2026-04-21 19:35 34.14057 -104.32918 42932 ft 481 kts 280°
2026-04-21 19:36 34.15434 -104.40854 42932 ft 482 kts 280°
2026-04-21 19:36 34.16798 -104.48744 42933 ft 482 kts 280°
2026-04-21 19:37 34.18163 -104.56680 42933 ft 482 kts 280°
2026-04-21 19:37 34.19295 -104.63284 42933 ft 482 kts 280°
2026-04-21 19:38 34.20873 -104.72525 42944 ft 482 kts 280°
2026-04-21 19:38 34.23003 -104.85064 42943 ft 482 kts 280°
2026-04-21 19:39 34.28345 -105.16897 42977 ft 482 kts 279°
2026-04-21 19:39 34.33615 -105.48827 43007 ft 483 kts 279°
2026-04-21 19:40 34.39514 -105.80425 43030 ft 484 kts 282°
2026-04-21 19:40 34.43503 -105.98976 43036 ft 484 kts 282°
2026-04-21 19:41 34.46907 -106.14804 43027 ft 485 kts 282°
2026-04-21 19:41 34.50273 -106.30552 43029 ft 485 kts 282°
2026-04-21 19:42 34.53647 -106.46434 43011 ft 485 kts 282°
2026-04-21 19:42 34.57003 -106.62339 42999 ft 485 kts 282°
2026-04-21 19:43 34.60333 -106.78227 42979 ft 486 kts 282°
2026-04-21 19:43 34.63627 -106.94046 42978 ft 486 kts 282°
2026-04-21 19:44 34.66920 -107.09981 42963 ft 485 kts 282°
2026-04-21 19:44 34.70190 -107.25917 42966 ft 485 kts 282°
2026-04-21 19:45 34.73421 -107.41774 42972 ft 485 kts 282°
2026-04-21 19:45 34.76646 -107.57713 42975 ft 485 kts 281°
2026-04-21 19:46 34.79851 -107.73667 42979 ft 485 kts 281°
2026-04-21 19:46 34.83011 -107.89513 42974 ft 485 kts 281°
2026-04-21 19:47 34.86181 -108.05528 42973 ft 485 kts 281°
2026-04-21 19:47 34.89332 -108.21565 42962 ft 487 kts 281°
2026-04-21 19:48 34.92463 -108.37624 42952 ft 486 kts 281°
2026-04-21 19:48 34.95552 -108.53584 42949 ft 485 kts 281°
2026-04-21 19:49 34.98632 -108.69615 42960 ft 485 kts 281°
2026-04-21 19:49 35.01674 -108.85574 42961 ft 486 kts 281°
2026-04-21 19:50 35.04717 -109.01657 42960 ft 485 kts 281°
2026-04-21 19:50 35.07740 -109.17762 42962 ft 485 kts 281°
2026-04-21 19:51 35.10713 -109.33717 42967 ft 485 kts 281°
2026-04-21 19:51 35.13692 -109.49840 42966 ft 483 kts 280°
2026-04-21 19:52 35.16620 -109.65800 42976 ft 484 kts 280°
2026-04-21 19:52 35.19554 -109.81928 42976 ft 483 kts 280°
2026-04-21 19:53 35.22444 -109.97944 42973 ft 482 kts 280°
2026-04-21 19:53 35.25296 -110.13875 42985 ft 482 kts 280°
2026-04-21 19:54 35.28132 -110.29851 42968 ft 480 kts 279°
2026-04-21 19:54 35.30948 -110.45830 42971 ft 480 kts 279°
2026-04-21 19:55 35.33708 -110.61625 42962 ft 476 kts 279°
2026-04-21 19:55 35.36461 -110.77514 42964 ft 476 kts 279°
2026-04-21 19:56 35.39169 -110.93275 42960 ft 473 kts 279°
2026-04-21 19:56 35.41872 -111.09123 42958 ft 474 kts 279°
2026-04-21 19:57 35.44550 -111.24965 42956 ft 471 kts 279°
2026-04-21 19:57 35.47178 -111.40642 42979 ft 472 kts 279°
2026-04-21 19:58 35.49801 -111.56422 43016 ft 472 kts 278°
2026-04-21 19:58 35.52407 -111.72237 43003 ft 472 kts 278°
2026-04-21 19:59 35.54979 -111.87970 43022 ft 472 kts 278°
2026-04-21 19:59 35.57547 -112.03820 43081 ft 472 kts 278°
2026-04-21 20:00 35.60089 -112.19651 43054 ft 472 kts 278°
2026-04-21 20:00 35.62599 -112.35422 43011 ft 472 kts 278°
2026-04-21 20:01 35.65104 -112.51295 42991 ft 472 kts 278°
2026-04-21 20:01 35.67584 -112.67158 42987 ft 472 kts 278°
2026-04-21 20:02 35.70048 -112.83056 42980 ft 472 kts 278°
2026-04-21 20:02 35.72478 -112.98884 42965 ft 473 kts 277°
2026-04-21 20:03 35.74902 -113.14819 42940 ft 471 kts 277°
2026-04-21 20:03 35.77296 -113.30697 42933 ft 472 kts 277°
2026-04-21 20:04 35.79671 -113.46602 42907 ft 468 kts 277°
2026-04-21 20:04 35.82005 -113.62363 42876 ft 470 kts 277°
2026-04-21 20:05 35.84325 -113.78211 42836 ft 468 kts 276°
2026-04-21 20:05 35.86609 -113.93940 42874 ft 465 kts 276°
2026-04-21 20:06 35.88855 -114.09564 42876 ft 464 kts 276°
2026-04-21 20:06 35.91081 -114.25204 42880 ft 463 kts 275°
2026-04-21 20:07 35.93295 -114.40908 42902 ft 464 kts 275°
2026-04-21 20:07 35.95479 -114.56542 42914 ft 464 kts 275°
2026-04-21 20:08 35.97657 -114.72295 42926 ft 464 kts 275°
2026-04-21 20:08 36.00099 -114.87960 42922 ft 469 kts 283°
2026-04-21 20:09 36.04801 -115.03120 42926 ft 475 kts 285°
2026-04-21 20:09 36.09511 -115.18288 42934 ft 475 kts 285°
2026-04-21 20:10 36.14235 -115.33596 42909 ft 476 kts 285°
2026-04-21 20:10 36.18575 -115.47733 42937 ft 479 kts 285°
2026-04-21 20:11 36.20919 -115.55412 42922 ft 476 kts 285°
2026-04-21 20:11 36.23266 -115.63101 42937 ft 479 kts 285°
2026-04-21 20:12 36.25620 -115.70848 42931 ft 481 kts 285°
2026-04-21 20:12 36.27581 -115.77314 42923 ft 481 kts 285°
2026-04-21 20:13 36.30317 -115.86358 42914 ft 481 kts 284°
2026-04-21 20:13 36.32668 -115.94152 42901 ft 481 kts 284°
2026-04-21 20:14 36.34993 -116.01883 42879 ft 480 kts 284°
2026-04-21 20:14 36.37324 -116.09653 42913 ft 479 kts 284°
2026-04-21 20:15 36.39652 -116.17439 42852 ft 482 kts 284°
2026-04-21 20:15 36.41988 -116.25261 42860 ft 484 kts 284°
2026-04-21 20:16 36.44293 -116.33024 42851 ft 481 kts 284°
2026-04-21 20:16 36.46611 -116.40832 42836 ft 481 kts 284°
2026-04-21 20:17 36.48922 -116.48650 42832 ft 481 kts 284°
2026-04-21 20:17 36.51222 -116.56445 42836 ft 484 kts 284°
2026-04-21 20:18 36.53141 -116.62965 42825 ft 483 kts 284°
2026-04-21 20:18 36.55810 -116.72154 42816 ft 481 kts 282°
2026-04-21 20:19 36.56950 -116.80178 42812 ft 469 kts 269°
2026-04-21 20:19 36.57375 -116.88315 42836 ft 470 kts 269°
2026-04-21 20:20 36.57805 -116.96399 42817 ft 468 kts 269°
2026-04-21 20:20 36.58217 -117.04441 42815 ft 468 kts 269°
2026-04-21 20:21 36.58633 -117.12554 42813 ft 468 kts 269°
2026-04-21 20:21 36.59041 -117.20669 42814 ft 468 kts 269°
2026-04-21 20:22 36.59441 -117.28714 42824 ft 469 kts 269°
2026-04-21 20:22 36.60036 -117.40846 42827 ft 467 kts 269°
2026-04-21 20:23 36.60511 -117.50875 42817 ft 466 kts 269°
2026-04-21 20:23 36.61265 -117.66955 42780 ft 468 kts 269°
2026-04-21 20:24 36.62001 -117.83151 42768 ft 470 kts 268°
2026-04-21 20:24 36.62718 -117.99409 42764 ft 470 kts 268°
2026-04-21 20:25 36.63410 -118.15604 42766 ft 471 kts 268°
2026-04-21 20:25 36.64084 -118.31914 42858 ft 473 kts 268°
2026-04-21 20:26 36.64630 -118.45510 42907 ft 472 kts 268°
2026-04-21 20:26 36.65367 -118.64575 42945 ft 473 kts 268°
2026-04-21 20:27 36.65876 -118.78189 43030 ft 474 kts 268°
2026-04-21 20:27 36.66469 -118.94606 43042 ft 474 kts 268°
2026-04-21 20:28 36.67031 -119.10835 43049 ft 467 kts 268°
2026-04-21 20:28 36.67572 -119.27058 43058 ft 472 kts 268°
2026-04-21 20:29 36.68094 -119.43331 43047 ft 473 kts 268°
2026-04-21 20:29 36.68438 -119.54457 43044 ft 464 kts 268°
2026-04-21 20:30 36.68561 -119.58368 43012 ft 438 kts 268°
2026-04-21 20:30 36.68673 -119.62068 42685 ft 419 kts 267°
2026-04-21 20:30 36.68773 -119.65684 41720 ft 416 kts 267°
2026-04-21 20:30 36.68873 -119.69286 40748 ft 414 kts 266°
2026-04-21 20:31 36.68980 -119.72861 39825 ft 411 kts 266°
2026-04-21 20:31 36.69084 -119.76369 38894 ft 407 kts 266°
2026-04-21 20:31 36.69183 -119.79887 37720 ft 404 kts 265°
2026-04-21 20:31 36.69279 -119.83389 36416 ft 404 kts 265°
2026-04-21 20:32 36.69375 -119.86903 34987 ft 406 kts 264°
2026-04-21 20:32 36.69472 -119.90421 33507 ft 407 kts 264°
2026-04-21 20:32 36.69569 -119.93954 31428 ft 410 kts 264°
2026-04-21 20:32 36.69659 -119.97537 29543 ft 421 kts 265°
2026-04-21 20:33 36.69765 -120.01162 29120 ft 412 kts 265°
2026-04-21 20:33 36.69864 -120.04699 28703 ft 416 kts 265°
2026-04-21 20:33 36.69953 -120.08281 28149 ft 411 kts 265°
2026-04-21 20:33 36.70040 -120.11825 27641 ft 408 kts 266°
2026-04-21 20:34 36.70130 -120.15332 27071 ft 402 kts 266°
2026-04-21 20:34 36.70219 -120.18800 26540 ft 400 kts 266°
2026-04-21 20:34 36.70305 -120.22252 26015 ft 397 kts 266°
2026-04-21 20:34 36.70388 -120.25690 25492 ft 395 kts 266°
2026-04-21 20:35 36.70470 -120.29058 24974 ft 393 kts 266°
2026-04-21 20:35 36.70551 -120.32450 24460 ft 391 kts 266°
2026-04-21 20:35 36.70631 -120.35831 23949 ft 389 kts 266°
2026-04-21 20:35 36.70710 -120.39196 23397 ft 387 kts 267°
2026-04-21 20:36 36.70788 -120.42508 22875 ft 377 kts 267°
2026-04-21 20:36 36.70863 -120.45778 22376 ft 376 kts 267°
2026-04-21 20:36 36.70936 -120.49040 21876 ft 375 kts 267°
2026-04-21 20:36 36.71009 -120.52290 21386 ft 374 kts 267°
2026-04-21 20:37 36.71080 -120.55481 20901 ft 372 kts 267°
2026-04-21 20:37 36.71150 -120.58697 20404 ft 371 kts 267°
2026-04-21 20:37 36.71218 -120.61906 19930 ft 371 kts 267°
2026-04-21 20:37 36.71286 -120.65149 19431 ft 375 kts 268°
2026-04-21 20:38 36.71356 -120.68385 18939 ft 373 kts 268°
2026-04-21 20:38 36.71424 -120.71600 18448 ft 370 kts 268°
2026-04-21 20:38 36.71489 -120.74799 17932 ft 368 kts 268°
2026-04-21 20:38 36.71495 -120.77972 17409 ft 362 kts 262°
2026-04-21 20:39 36.71026 -120.81034 16828 ft 360 kts 254°
2026-04-21 20:39 36.70508 -120.84011 16293 ft 354 kts 255°
2026-04-21 20:39 36.70023 -120.87009 15911 ft 351 kts 255°
2026-04-21 20:39 36.69538 -120.89991 15501 ft 351 kts 255°
2026-04-21 20:40 36.69036 -120.92949 15043 ft 348 kts 255°
2026-04-21 20:40 36.68534 -120.95898 14590 ft 346 kts 255°
2026-04-21 20:40 36.68045 -120.98824 14132 ft 344 kts 255°
2026-04-21 20:40 36.67560 -121.01734 13658 ft 341 kts 255°
2026-04-21 20:41 36.67071 -121.04627 13195 ft 339 kts 255°
2026-04-21 20:41 36.66591 -121.07463 12750 ft 337 kts 255°
2026-04-21 20:41 36.66108 -121.10315 12309 ft 335 kts 255°
2026-04-21 20:41 36.65630 -121.13144 11873 ft 333 kts 255°
2026-04-21 20:42 36.65153 -121.15961 11434 ft 331 kts 255°
2026-04-21 20:42 36.64682 -121.18734 11007 ft 316 kts 255°
2026-04-21 20:42 36.64246 -121.21313 10599 ft 292 kts 255°
2026-04-21 20:42 36.63839 -121.23704 10223 ft 275 kts 255°
2026-04-21 20:43 36.63444 -121.26004 9848 ft 269 kts 255°
2026-04-21 20:43 36.63061 -121.28239 9495 ft 266 kts 255°
2026-04-21 20:43 36.62677 -121.30491 9151 ft 264 kts 255°
2026-04-21 20:43 36.62293 -121.32738 8806 ft 265 kts 255°
2026-04-21 20:44 36.61909 -121.34979 8451 ft 263 kts 255°
2026-04-21 20:44 36.61533 -121.37174 8115 ft 262 kts 255°
2026-04-21 20:44 36.61152 -121.39391 7774 ft 262 kts 255°
2026-04-21 20:44 36.60769 -121.41614 7431 ft 262 kts 255°
2026-04-21 20:45 36.60388 -121.43835 7080 ft 261 kts 255°
2026-04-21 20:45 36.60009 -121.46040 6736 ft 259 kts 255°
2026-04-21 20:45 36.59635 -121.48200 6398 ft 258 kts 255°
2026-04-21 20:45 36.59260 -121.50374 6045 ft 257 kts 255°
2026-04-21 20:46 36.58884 -121.52553 5714 ft 257 kts 255°
2026-04-21 20:46 36.58508 -121.54723 5383 ft 255 kts 255°
2026-04-21 20:46 36.58142 -121.56866 5049 ft 249 kts 256°
2026-04-21 20:46 36.57890 -121.59039 4760 ft 252 kts 258°
2026-04-21 20:47 36.57623 -121.61129 4376 ft 237 kts 257°
2026-04-21 20:47 36.57366 -121.63100 4001 ft 225 kts 258°
2026-04-21 20:47 36.57133 -121.64970 3646 ft 216 kts 257°
2026-04-21 20:47 36.56911 -121.66755 3333 ft 203 kts 259°
2026-04-21 20:48 36.56813 -121.68463 3018 ft 195 kts 272°
2026-04-21 20:48 36.56966 -121.70109 2732 ft 190 kts 274°
2026-04-21 20:48 36.57116 -121.71715 2402 ft 184 kts 274°
2026-04-21 20:48 36.57245 -121.73245 2156 ft 174 kts 274°
2026-04-21 20:49 36.57369 -121.74711 1890 ft 169 kts 272°
2026-04-21 20:49 36.57489 -121.76108 1619 ft 152 kts 273°
2026-04-21 20:49 36.57594 -121.77307 1402 ft 130 kts 273°
2026-04-21 20:49 36.57674 -121.78383 1223 ft 119 kts 271°
2026-04-21 20:50 36.57775 -121.79405 1093 ft 119 kts 273°
2026-04-21 20:50 36.57878 -121.80431 899 ft 121 kts 273°
2026-04-21 20:50 36.57962 -121.81482 656 ft 124 kts 272°
2026-04-21 20:50 36.58088 -121.82537 426 ft 124 kts 282°
2026-04-21 20:51 36.58394 -121.83519 235 ft 117 kts 288°
2026-04-21 20:51 36.58673 -121.84346 206 ft 90 kts 292°
2026-04-21 20:51 36.58872 -121.84940 213 ft 61 kts 292°
2026-04-21 20:51 36.59003 -121.85328 209 ft 35 kts 292°
2026-04-21 20:52 36.59071 -121.85531 203 ft 11 kts 292°
2026-04-21 20:52 36.59065 -121.85578 207 ft 5 kts 218°
2026-04-21 20:52 36.59026 -121.85600 205 ft 6 kts 206°
2026-04-21 20:52 36.59011 -121.85619 205 ft 2 kts 231°
2026-04-21 20:53 36.59004 -121.85630 209 ft 2 kts 231°
2026-04-21 20:53 36.58985 -121.85662 206 ft 7 kts 239°
2026-04-21 20:53 36.58969 -121.85732 206 ft 8 kts 259°
2026-04-21 20:53 36.58961 -121.85783 206 ft 4 kts 259°
2026-04-21 20:54 36.58951 -121.85803 211 ft 2 kts 191°
2026-04-21 20:54 36.58922 -121.85793 206 ft 6 kts 187°
2026-04-21 20:54 36.58899 -121.85827 206 ft 7 kts 252°
2026-04-21 20:54 36.58909 -121.85854 206 ft 2 kts 343°
2026-04-21 20:55 36.58921 -121.85857 214 ft 0 kts 344°